Weather History for KLFT - August, 2013

Change the Weather History Date:

Sunday, August 4, 2013

  Actual Average Record
Temperature  
Mean Temperature 86 °F 84 °F  
Max Temperature 95 °F 93 °F 99 °F (1951)
Min Temperature 77 °F 75 °F 66 °F (1920)
Cooling Degree Days 21 19  
Month to date cooling degree days 87 76  
Year to date cooling degree days 1627 1760  
Since 1 June cooling degree days 1163 1146  
Growing Degree Days 35 (Base 50)    
Moisture  
Dew Point 75 °F    
Average Humidity 72    
Maximum Humidity 91    
Minimum Humidity 52    
Precipitation  
Precipitation 1.14 in 0.15 in 5.60 in (1940)
Month to date precipitation 1.14 0.62  
Year to date precipitation 40.26 36.62  
Sea Level Pressure  
Sea Level Pressure 30.06 in    
Wind  
Wind Speed 2 mph (NW)    
Max Wind Speed 17 mph    
Max Gust Speed 29 mph    
Visibility 8 miles    
Events Rain , Thunderstorm    
T = Trace of Precipitation, MM = Missing Value Source: NWS Daily Summary

Daily Weather History Graph

Daily Weather History Graph

Search for Another Location

Airport or City:

Trip Planner

Search our weather history database for the weather conditions in past years. The results will help you decide how hot, cold, wet, or windy it might be!

Date:

Astronomy

Aug. 04, 2013 Rise Set
Actual Time 6:28 AM CDT 7:58 PM CDT
Civil Twilight 6:02 AM CDT 8:24 PM CDT
Nautical Twilight 5:31 AM CDT 8:55 PM CDT
Astronomical Twilight 4:59 AM CDT 9:27 PM CDT
Moon 4:31 AM CDT (8/4) 6:22 PM CDT (8/4)
Length of Visible Light 14h 22m
Length of Day
13h 30m
Waning Crescent, 4% of the Moon is Illuminated
Aug 4
Waning Crescent
Aug 6
New
Aug 14
First Quarter
Aug 20
Full
Aug 28
Last Quarter

Hourly Weather History & Observations

Time (CDT) Temp. Heat Index Dew Point Humidity Pressure Visibility Wind Dir Wind Speed Gust Speed Precip Events Conditions
12:53 AM 80.1 °F 85.1 °F 75.0 °F 85% 30.07 in 10.0 mi SW 4.6 mph - N/A   Clear
1:53 AM 80.1 °F 85.1 °F 75.0 °F 85% 30.06 in 10.0 mi SW 4.6 mph - N/A   Clear
2:53 AM 79.0 °F - 75.0 °F 88% 30.05 in 10.0 mi SSW 3.5 mph - N/A   Clear
3:53 AM 79.0 °F - 75.0 °F 88% 30.05 in 10.0 mi Calm Calm - N/A   Clear
4:53 AM 79.0 °F - 75.9 °F 90% 30.05 in 10.0 mi Calm Calm - N/A   Clear
5:53 AM 78.1 °F - 75.0 °F 90% 30.05 in 10.0 mi Calm Calm - N/A   Clear
6:53 AM 78.1 °F - 75.0 °F 90% 30.07 in 10.0 mi Calm Calm - N/A   Clear
7:53 AM 82.0 °F 89.4 °F 75.9 °F 82% 30.10 in 10.0 mi Calm Calm - N/A   Scattered Clouds
8:53 AM 84.9 °F 94.1 °F 75.9 °F 74% 30.10 in 10.0 mi Calm Calm - N/A   Partly Cloudy
9:06 AM 84.2 °F 92.3 °F 75.2 °F 74% 30.10 in 10.0 mi NW 3.5 mph - N/A   Mostly Cloudy
9:53 AM 86.0 °F 95.1 °F 75.0 °F 70% 30.11 in 10.0 mi NW 5.8 mph - N/A   Mostly Cloudy
10:01 AM 87.8 °F 97.6 °F 75.2 °F 66% 30.11 in 10.0 mi NW 3.5 mph - N/A   Partly Cloudy
10:53 AM 87.1 °F 94.5 °F 73.0 °F 63% 30.10 in 10.0 mi WNW 5.8 mph - N/A   Mostly Cloudy
11:53 AM 90.0 °F 96.9 °F 72.0 °F 55% 30.09 in 10.0 mi Variable 3.5 mph - N/A   Scattered Clouds
12:53 PM 93.0 °F 101.9 °F 73.0 °F 52% 30.06 in 10.0 mi Calm Calm - N/A   Mostly Cloudy
1:53 PM 93.9 °F 103.4 °F 73.0 °F 51% 30.05 in 10.0 mi SE 3.5 mph - N/A   Scattered Clouds
2:53 PM 91.9 °F 100.7 °F 73.0 °F 54% 30.03 in 10.0 mi Calm Calm - N/A   Overcast
3:46 PM 80.6 °F 87.1 °F 77.0 °F 89% 30.05 in 1.5 mi Calm Calm - 0.17 in Rain Heavy Rain
3:53 PM 80.1 °F 84.5 °F 73.9 °F 81% 30.03 in 0.5 mi NNW 8.1 mph - 0.37 in Rain Heavy Rain
4:04 PM 80.6 °F 84.6 °F 71.6 °F 74% 30.03 in 0.8 mi North 12.7 mph 28.8 mph 0.23 in Rain Heavy Rain
4:14 PM 78.8 °F - 73.4 °F 83% 30.04 in 1.5 mi Calm Calm - 0.35 in Rain Heavy Rain
4:35 PM 78.8 °F - 73.4 °F 83% 30.03 in 1.8 mi North 12.7 mph - 0.72 in Rain Heavy Rain
4:45 PM 77.0 °F - 73.4 °F 89% 30.03 in 3.0 mi NE 8.1 mph - 0.77 in Rain Light Rain
4:53 PM 77.0 °F - 73.9 °F 90% 30.03 in 10.0 mi East 6.9 mph - 0.77 in Rain Light Rain
5:53 PM 80.1 °F 85.4 °F 75.9 °F 87% 30.04 in 10.0 mi NNE 4.6 mph - N/A Thunderstorm Mostly Cloudy
6:53 PM 79.0 °F - 75.9 °F 90% 30.02 in 10.0 mi South 4.6 mph - 0.00 in   Overcast
7:53 PM 80.1 °F 85.4 °F 75.9 °F 87% 30.01 in 10.0 mi South 4.6 mph - N/A   Overcast
8:53 PM 80.1 °F 85.4 °F 75.9 °F 87% 30.02 in 10.0 mi Calm Calm - N/A   Partly Cloudy
9:53 PM 80.1 °F 85.8 °F 77.0 °F 90% 30.04 in 10.0 mi Calm Calm - N/A   Partly Cloudy
10:53 PM 80.1 °F 85.8 °F 77.0 °F 90% 30.05 in 10.0 mi Calm Calm - N/A   Partly Cloudy
11:53 PM 80.1 °F 85.8 °F 77.0 °F 90% 30.06 in 10.0 mi Calm Calm - N/A   Clear